TimeEST,TemperatureF,Dew PointF,Humidity,Sea Level PressureIn,VisibilityMPH,Wind Direction,Wind SpeedMPH,Gust SpeedMPH,PrecipitationIn,Events,Conditions,WindDirDegrees,DateUTC
12:53 AM,10.9,5.0,77,30.53,10.0,NE,8.1,-,N/A,,Clear,50,2014-03-06 05:53:00
1:53 AM,10.9,5.0,77,30.52,10.0,NE,8.1,-,N/A,,Clear,40,2014-03-06 06:53:00
2:53 AM,12.0,6.1,77,30.52,10.0,NNE,6.9,-,N/A,,Clear,30,2014-03-06 07:53:00
3:53 AM,10.9,3.9,73,30.50,10.0,NE,9.2,-,N/A,,Clear,40,2014-03-06 08:53:00
4:53 AM,10.9,3.9,73,30.49,10.0,NE,10.4,-,N/A,,Clear,40,2014-03-06 09:53:00
5:53 AM,10.9,3.9,73,30.50,10.0,NE,9.2,-,N/A,,Clear,40,2014-03-06 10:53:00
6:53 AM,10.0,1.9,70,30.48,10.0,ENE,9.2,-,N/A,,Clear,60,2014-03-06 11:53:00
7:53 AM,10.9,1.9,67,30.48,10.0,ENE,8.1,-,N/A,,Clear,70,2014-03-06 12:53:00
8:53 AM,17.1,3.9,56,30.48,10.0,East,16.1,24.2,N/A,,Clear,90,2014-03-06 13:53:00
9:53 AM,19.0,5.0,54,30.45,10.0,East,13.8,-,N/A,,Clear,100,2014-03-06 14:53:00
10:53 AM,21.0,7.0,55,30.42,10.0,ESE,16.1,-,N/A,,Clear,110,2014-03-06 15:53:00
11:53 AM,23.0,8.1,53,30.43,10.0,East,12.7,-,N/A,,Clear,100,2014-03-06 16:53:00
12:53 PM,25.0,9.0,51,30.39,10.0,East,10.4,-,N/A,,Clear,100,2014-03-06 17:53:00
1:53 PM,27.0,10.0,49,30.35,10.0,East,8.1,-,N/A,,Clear,80,2014-03-06 18:53:00
2:53 PM,28.0,10.9,49,30.33,10.0,East,12.7,-,N/A,,Clear,100,2014-03-06 19:53:00
3:53 PM,28.0,12.0,51,30.31,10.0,East,10.4,-,N/A,,Clear,80,2014-03-06 20:53:00
4:53 PM,26.1,12.0,55,30.29,10.0,East,9.2,-,N/A,,Clear,100,2014-03-06 21:53:00
5:53 PM,26.1,10.9,53,30.28,10.0,East,9.2,-,N/A,,Clear,80,2014-03-06 22:53:00
6:53 PM,21.0,9.0,60,30.27,10.0,ESE,5.8,-,N/A,,Clear,110,2014-03-06 23:53:00
7:53 PM,19.9,7.0,57,30.26,10.0,ESE,3.5,-,N/A,,Clear,120,2014-03-07 00:53:00
8:53 PM,21.0,8.1,57,30.24,10.0,East,5.8,-,N/A,,Clear,80,2014-03-07 01:53:00
9:53 PM,19.9,8.1,60,30.23,10.0,ENE,3.5,-,N/A,,Clear,60,2014-03-07 02:53:00
10:53 PM,14.0,5.0,67,30.23,10.0,Calm,Calm,-,N/A,,Clear,0,2014-03-07 03:53:00
11:53 PM,14.0,5.0,67,30.19,10.0,NNW,4.6,-,N/A,,Clear,330,2014-03-07 04:53:00